Content
SEND FEEDBACK

Daily
Averages
Monthly
Summary
United Kingdom

BOURNEMOUTH, ENGLAND


Home > Europe > United Kingdom > England
Elevation: 36 feet     Latitude: 50 47N     Longitude: 001 50W

WEATHER
 
SELECT A DAY
Number of Records: 251,932;   Date Range: 7/1/96 - 7/9/14
 
SHARE

PRINT THIS DATA

[ ← Previous Day ]
WEATHER ALMANAC - FEBRUARY 16, 2014
[ Next Day → ]
[ °C ]   °F
Weather ElementAverageHighLow
Temperature43.4 °F51.8 °F (12:50 pm)32 °F (6:20 am)
Dewpoint38.6 °F43 °F (10:00 pm)30.2 °F (5:50 am)
Humidity81.6 %100 % (7:20 am)50 % (3:00 pm)
Barometer29.75 in29.80 in (9:20 am)29.69 in (1:00 am)
Wind Speed6.9 mph12.7 mph (1:50 pm)
Weather ElementAverage
Visibility8.1 mi
Wind DirectionSSW (211 °)

Weather ElementTotal
Precipitation---
Heating Degree Days23.1 (Base 65)
Averaged from 60 records on February 16, 2014
WEATHER CONDITIONS BREAKOUT
WIND DIRECTION BREAKOUT
WEATHER BY HOUR - FEBRUARY 16, 2014
[ °C ]   °F
Local TimeTemperatureDewpointHumidityBarometerVisibilityWind DirectionWind SpeedGust SpeedPrecipitationEventsConditions
1:00 AM39.0 °F35.0 °F81 %29.69 in10.0 miWest (260°)6.9 mphPartly Cloudy
2:00 AM38.0 °F35.0 °F85 %29.70 in9.0 miWest (260°)8.1 mphMostly Cloudy
3:00 AM37.0 °F34.0 °F86 %29.72 in11.0 miWest (260°)6.9 mphScattered Clouds
4:00 AM36.0 °F34.0 °F87 %29.73 in10.0 miWest (260°)5.8 mph
4:50 AM35.6 °F33.8 °F93 %29.74 inWSW (250°)5.8 mphClear
5:00 AM35.0 °F33.0 °F88 %29.75 in9.0 miWSW (250°)5.8 mph
5:20 AM35.6 °F33.8 °F93 %29.74 inWSW (250°)5.8 mphClear
5:50 AM33.8 °F30.2 °F87 %29.74 inWest (260°)5.8 mphClear
6:00 AM34.0 °F32.0 °F88 %29.75 in9.0 miWest (260°)5.8 mph
6:20 AM32.0 °F30.2 °F93 %29.74 inWest (260°)5.8 mphClear
6:50 AM32.0 °F30.2 °F93 %29.74 inWest (260°)6.9 mphClear
7:00 AM32.0 °F31.0 °F94 %29.77 in9.0 miWest (260°)6.9 mph
7:20 AM33.8 °F33.8 °F100 %29.77 inWest (260°)4.6 mphClear
7:50 AM33.8 °F32.0 °F93 %29.77 in6.2 miSW (230°)4.6 mphPartly Cloudy
8:00 AM35.0 °F33.0 °F92 %29.78 in7.0 miSW (230°)4.6 mph
8:20 AM33.8 °F32.0 °F93 %29.77 in6.2 miWest (270°)4.6 mphPartly Cloudy
8:50 AM37.4 °F37.4 °F100 %29.77 inWSW (240°)3.5 mphClear
9:00 AM38.0 °F37.0 °F94 %29.79 in8.0 miWSW (240°)3.5 mph
9:20 AM41.0 °F39.2 °F93 %29.80 inWest (260°)1.2 mphClear
9:50 AM46.4 °F41.0 °F81 %29.80 inVariable1.2 mphClear
10:00 AM46.0 °F40.0 °F74 %29.80 in9.0 miSSW (210°)1.2 mph
10:20 AM48.2 °F39.2 °F71 %29.77 in6.2 miWSW (240°)8.1 mphPartly Cloudy
10:50 AM48.2 °F37.4 °F66 %29.80 in6.2 miWSW (240°)9.2 mphPartly Cloudy
11:00 AM48.0 °F39.0 °F63 %29.80 in8.0 miWSW (240°)9.2 mph
11:20 AM48.2 °F37.4 °F66 %29.80 in6.2 miWSW (250°)6.9 mphPartly Cloudy
11:50 AM50.0 °F37.4 °F62 %29.77 in6.2 miSW (230°)6.9 mphPartly Cloudy
12:00 PM50.0 °F38.0 °F52 %29.80 in11.0 miSW (230°)6.9 mphScattered Clouds
12:20 PM48.2 °F37.4 °F66 %29.77 in6.2 miSW (230°)8.1 mphPartly Cloudy
12:50 PM51.8 °F42.8 °F71 %29.77 in6.2 miSSW (200°)8.1 mphScattered Clouds
1:00 PM51.0 °F42.0 °F61 %29.79 in8.0 miSSW (200°)11.5 mphScattered Clouds
1:20 PM50.0 °F41.0 °F71 %29.77 in6.2 miSouth (190°)11.5 mphScattered Clouds
1:50 PM50.0 °F39.2 °F66 %29.74 in6.2 miSouth (190°)12.7 mphScattered Clouds
2:00 PM50.0 °F39.0 °F55 %29.77 in11.0 miSouth (190°)12.7 mphScattered Clouds
2:20 PM50.0 °F39.2 °F66 %29.74 in6.2 miSouth (190°)10.4 mphPartly Cloudy
2:50 PM50.0 °F37.4 °F62 %29.74 in6.2 miSouth (180°)10.4 mphPartly Cloudy
3:00 PM51.0 °F38.0 °F50 %29.75 in16.0 miSouth (180°)10.4 mph
3:20 PM48.2 °F41.0 °F76 %29.74 in6.2 miSouth (190°)9.2 mphScattered Clouds
3:50 PM48.2 °F41.0 °F76 %29.74 in6.2 miSSW (200°)6.9 mphScattered Clouds
4:00 PM48.0 °F41.0 °F68 %29.74 in25.0 miSSW (200°)6.9 mphMostly Cloudy
4:20 PM48.2 °F41.0 °F76 %29.74 in6.2 miSSW (200°)8.1 mphScattered Clouds
4:50 PM46.4 °F41.0 °F81 %29.71 in6.2 miSouth (190°)9.2 mphScattered Clouds
5:00 PM47.0 °F42.0 °F75 %29.74 in11.0 miSouth (190°)9.2 mphPartly Cloudy
5:20 PM46.4 °F42.8 °F87 %29.71 in6.2 miSSW (200°)8.1 mphScattered Clouds
5:50 PM44.6 °F42.8 °F93 %29.74 in6.2 miSouth (180°)5.8 mphScattered Clouds
6:00 PM45.0 °F42.0 °F86 %29.74 in7.0 miSouth (180°)5.8 mphScattered Clouds
6:20 PM44.6 °F41.0 °F87 %29.74 in6.2 miSouth (190°)4.6 mphScattered Clouds
6:50 PM44.6 °F42.8 °F93 %29.74 in6.2 miSouth (190°)5.8 mphPartly Cloudy
7:00 PM44.0 °F42.0 °F89 %29.75 in7.0 miSouth (180°)5.8 mphScattered Clouds
7:20 PM44.6 °F41.0 °F87 %29.74 in6.2 miSouth (190°)6.9 mphPartly Cloudy
7:50 PM44.6 °F42.8 °F93 %29.71 inSouth (170°)6.9 mphClear
8:00 PM45.0 °F42.0 °F87 %29.74 in8.0 miSouth (170°)5.8 mphScattered Clouds
8:20 PM44.6 °F42.8 °F93 %29.71 inSouth (170°)6.9 mphClear
8:50 PM44.6 °F42.8 °F93 %29.71 in6.2 miSouth (170°)5.8 mphPartly Cloudy
9:00 PM45.0 °F42.0 °F87 %29.73 in8.0 miSouth (170°)5.8 mphScattered Clouds
9:20 PM44.6 °F42.8 °F93 %29.71 in6.2 miSouth (190°)6.9 mphPartly Cloudy
9:50 PM46.4 °F42.8 °F87 %29.71 in6.2 miSouth (190°)6.9 mphPartly Cloudy
10:00 PM45.0 °F43.0 °F89 %29.73 in9.0 miSouth (190°)6.9 mphMostly Cloudy
10:20 PM44.6 °F42.8 °F93 %29.71 inSouth (190°)6.9 mphClear
10:50 PM46.4 °F42.8 °F87 %29.71 inSouth (180°)6.9 mphClear
11:00 PM46.0 °F43.0 °F85 %29.72 in11.0 miSouth (180°)8.1 mphMostly Cloudy
Hourly data recorded from EGHH, located miles away from Bournemouth, England







STORIES FROM OUR PARTNERS